Location: Newark
(41.6478°N, 9.0078°E)
Time: 00:56:29
(UTC+00:00)

UWE-3 - Pass Details

Date: 01 February 2020
Orbit: 585 x 683 km, 97.6° (Epoch: 20 February)

Event Time Altitude Azimuth Distance (km) Brightness Sun altitude
Rises 04:24:24 0° 21° (NNE) 2,912 ? -24.9°
Reaches altitude 10° 04:26:42 10° 29° (NNE) 2,017 ? -24.5°
Maximum altitude 04:30:48 37° 98° (E) 999 ? -23.7°
Drops below altitude 10° 04:34:58 10° 166° (SSE) 2,058 ? -22.9°
Sets 04:37:20 0° 174° (S) 2,979 ? -22.5°
